{"data":{"norad_id":55961,"intl_designator":"2023-037AZ","name":"STARLINK-5933","alt_names":[],"object_type":"PAYLOAD","status":"ACTIVE","operator":null,"country":"US","launch_date":"2023-03-17","launch_site_code":"AFWTR","launch_vehicle":null,"mission":null,"orbit_class":"UNKNOWN","rcs_meters":null,"size_class":null,"mass_kg":null,"dimensions":null,"purposes":["comms"],"wikipedia_slug":null,"has_3d_model":false,"image_url":null,"decayed_at":null,"tle_current":{"epoch":"2026-09-20T21:13:22.942848Z","epoch_age_seconds":73027,"freshness":"FRESH","line1":"1 55961U 23037AZ  26263.88429332 -.00000054  00000+0  33015-5 0  9995","line2":"2 55961  69.9986 132.2152 0002806 270.8999  89.1839 14.98329211193710","mean_motion":14.98329211,"eccentricity":0.0002806,"inclination_deg":69.9986,"raan_deg":132.2152,"arg_perigee_deg":270.8999,"mean_anomaly_deg":89.1839,"bstar":3.3015e-6,"rev_number":19371,"period_min":96.107049734346,"perigee_km":570.10810605306,"apogee_km":574.00855567274,"semimajor_km":6950.1953308629,"source":"CELESTRAK","updated_at":"2026-09-21T09:00:33.347995Z"}}}